Home   Weather   Morristown   Past weeks
Flag for USA

Past Weather in Morristown, New Jersey, USA — Yesterday and Last 2 Weeks

Now
39 °F

Clear.


Feels Like: 39 °F
Forecast: 64 / 44 °F
Wind: No wind

Location: Morristown Municipal

Current Time: Oct 15, 2019 at 7:35:03 am

Latest Report: Oct 15, 2019 at 6:45 am


Visibility: 10 mi

Pressure: 30.15 "Hg

Humidity: 100%

Dew Point: 39 °F

Location of MorristownLocation

Past Weather in Morristown — Graph

°F

Morristown Temperature Yesterday

Maximum temperature yesterday: 72 °F (at 1:45 pm)
Minimum temperature yesterday: 46 °F (at 10:35 pm)
Average temperature yesterday: 57 °F

High & Low Weather Summary for the Past Weeks

 TemperatureHumidityPressure
High93 °F (Oct 2, 2:50 pm)100% (Oct 1, 12:15 am)30.49 "Hg (Oct 1, 12:15 am)
Low34 °F (Oct 5, 6:15 am)31% (Oct 10, 11:35 pm)29.75 "Hg (Oct 2, 3:50 pm)
Average57 °F81%30.13 "Hg
* Reported Sep 30 6:15 am — Oct 15 6:35 am, Morristown. Weather by CustomWeather, © 2019

Note: Actual official high and low records may vary slightly from our data, if they occured in-between our weather recording intervals... More about our weather records

Advertising

Morristown Weather History for the Previous 24 Hours

Scroll right to see more
 ConditionsComfort  
Time TempWeatherWind HumidityBarometerVisibility
6:35 am
Tue, Oct 15
37 °FClear.No wind100%30.15 "Hg10 mi
6:15 am36 °FFog.No wind100%30.14 "Hg2 mi
5:55 am36 °FFog.No wind100%30.13 "Hg1 mi
5:35 am37 °FFog.No wind100%30.13 "Hg1 mi
5:15 am37 °FFog.No wind100%30.13 "Hg4 mi
4:55 am37 °FClear.No wind100%30.13 "Hg10 mi
4:35 am39 °FFog.No wind100%30.13 "Hg4 mi
3:55 am39 °FClear.No wind100%30.11 "Hg10 mi
3:35 am39 °FClear.No wind100%30.11 "Hg10 mi
3:15 am39 °FClear.No wind100%30.10 "Hg10 mi
2:55 am41 °FClear.No wind100%30.11 "Hg10 mi
2:35 am43 °FClear.No wind93%30.10 "Hg10 mi
2:15 am45 °FClear.No wind87%30.10 "Hg10 mi
1:55 am46 °FClear.No wind82%30.10 "Hg10 mi
1:35 am48 °FClear.No wind82%30.10 "Hg10 mi
1:15 am50 °FClear.No wind71%30.09 "Hg10 mi
12:55 am54 °FClear.No wind63%30.08 "Hg10 mi
12:35 am55 °FClear.8 mph59%30.07 "Hg10 mi
12:15 am55 °FClear.7 mph59%30.06 "Hg10 mi
11:55 pm
Mon, Oct 14
55 °FClear.7 mph63%30.06 "Hg10 mi
11:35 pm57 °FClear.5 mph59%30.05 "Hg10 mi
11:15 pm55 °FClear.3 mph63%30.04 "Hg10 mi
10:35 pm46 °FClear.No wind100%30.03 "Hg10 mi
9:45 pm50 °FClear.6 mph88%30.02 "Hg10 mi
8:45 pm50 °FClear.No wind94%30.00 "Hg10 mi
7:45 pm54 °FClear.No wind82%29.98 "Hg10 mi
6:45 pm63 °FClear.5 mph56%29.95 "Hg10 mi
5:45 pm70 °FSunny.12 mph38%29.93 "Hg10 mi
4:45 pm72 °FSunny.14 mph36%29.91 "Hg10 mi
3:45 pm72 °FSunny.14 mph36%29.91 "Hg10 mi
2:45 pm72 °FSunny.10 mph38%29.91 "Hg10 mi
1:45 pm72 °FSunny.13 mph41%29.94 "Hg10 mi
12:50 pm70 °FSunny.6 mph50%29.96 "Hg10 mi
11:45 am66 °FSunny.6 mph64%29.98 "Hg10 mi
10:45 am63 °FScattered clouds.5 mph73%30.01 "Hg10 mi
9:45 am61 °FBroken clouds.8 mph83%30.01 "Hg10 mi
8:45 am57 °FPartly sunny.3 mph100%30.01 "Hg10 mi
7:45 am55 °FPartly sunny.No wind100%30.00 "Hg10 mi
Weather by CustomWeather, © 2019

See weather overview